User: anonymous   Login
Location: Unspecified
(0.0000°N, 0.0000°E)
Time: 16:14:55
(UTC+01:00)
Language:

Delta 168 - Orbit

View from above orbital plane
View from above orbital plane
View from above satellite
View from above satellite

Ground track
Ground track

The orbit data is extracted from the following two-line orbital elements,

1 14051U 83041B   16043.54454577  .00003270  00000-0  29785-3 0  9998
2 14051  25.3389 271.7752 1105071 232.6686 116.8007 13.06671789514160
Epoch (UTC): 12 February 2016 13:04:08
Eccentricity: 0.1105071
inclination: 25.3389°
perigee height: 394 km
apogee height: 2077 km
right ascension of ascending node: 271.7752°
argument of perigee: 232.6686°
revolutions per day: 13.06671789
mean anomaly at epoch: 116.8007°
orbit number at epoch: 51416

The dashed part of the orbit path shows where the satellite is in the earth's shadow,  

DLR